Regional Weather Roundup
Issued by NWS Cleveland, OH

Home | Current Version | Previous Version | Text Only | Print | Product List | Glossary On
Versions: 1 2 3 4 5 6 7 8 9 10 11 12 13 14 15 16 17 18 19 20 21 22 23 24 25 26 27 28 29 30 31 32 33 34 35 36 37 38 39 40 41 42 43 44 45 46 47 48 49 50
000
ASUS41 KCLE 251012
RWRCLE
OHIO REGIONAL WEATHER ROUNDUP
NATIONAL WEATHER SERVICE WILMINGTON, OH
600 AM EDT THU MAY 25 2017

NOTE: "FAIR" INDICATES FEW OR NO CLOUDS BELOW 12,000 FEET WITH NO
SIGNIFICANT WEATHER AND/OR OBSTRUCTIONS TO VISIBILITY.

OHZ001>008-015>018-024>027-034-035-043-044-251100-
   NORTHWEST OHIO

CITY           SKY/WX    TMP DP  RH WIND       PRES   REMARKS
DEFIANCE       CLOUDY    59  57  93 NE8       29.40S
FINDLAY        MOCLDY    61  56  83 E8        29.37S
TOLEDO EXPRESS CLOUDY    59  58  96 NE8       29.41R
TOLEDO EXEC    MOCLDY    59  58  96 NE7       29.42S
LIMA           HVY RAIN  59  59 100 SE5       29.37R FOG
$$

OHZ009>014-019>023-028>033-038-089-251100-
   NORTHEAST OHIO

CITY           SKY/WX    TMP DP  RH WIND       PRES   REMARKS
CLE-HOPKINS    CLOUDY    62  57  83 SE9       29.46R
CLE-LAKEFRONT  CLOUDY    61  55  81 SE13      29.44R
CUY CO. ARPT   NOT AVBL
LORAIN-ELYRIA    N/A    N/A N/A N/A MISG      29.43S
ASHTABULA      LGT RAIN  58  56  93 SE10      29.48S
AKRON-CANTON   CLOUDY    60  55  83 SE8       29.46S
WOOSTER        CLOUDY    58  57  97 SE9       29.45S
MANSFIELD      FAIR      59  57  93 SE13      29.41F
YOUNGSTOWN     LGT RAIN  56  54  93 SE12      29.50R
$$

OHZ042-051>053-060>062-070>072-077>081-251100-
  SOUTHWEST OHIO

CITY           SKY/WX    TMP DP  RH WIND       PRES   REMARKS
CINC-COVINGTON RAIN      58  57  97 SW8       29.39S FOG
CINC-LUNKEN    RAIN      60  59  96 SW10      29.40S FOG
HAMILTON       RAIN      59  23  25 SW6       29.38F
DAYTON         CLOUDY    58  57  97 S6        29.38R
WRIGHT-PAT AFB CLOUDY    59  59 100 SW3       29.37S
DAYTON GENERAL CLOUDY    58  57  97 S8        29.37S
WILMINGTON     LGT RAIN  58  58 100 S7        29.39R FOG
$$

OHZ036-037-039>041-045>050-054>059-063>069-073>076-082>088-251100-
  CENTRAL AND SOUTHEAST OHIO

CITY           SKY/WX    TMP DP  RH WIND       PRES   REMARKS
COLUMBUS       LGT RAIN  59  59 100 S10       29.39S
OSU AIRPORT    LGT RAIN  60  59  96 S12       29.38S
BOLTON FIELD   CLOUDY    59  57  93 S13       29.40R
RICKENBACK AFB CLOUDY    58  58  99 S13       29.39S
NEWARK         CLOUDY    59  56  89 SE7       29.41R
MARION         CLOUDY    61  56  83 SE14      29.39R
LANCASTER      CLOUDY    61  56  83 S9        29.41S
ZANESVILLE     CLOUDY    59  55  87 S6        29.42F
NEW PHILLY     LGT RAIN  59  58  96 CALM      29.45S FOG
$$




USA.gov is the U.S. government's official web portal to all federal, state and local government web resources and services.